Curacao, Curacao

11:18 PM AST on July 20, 2017 (GMT -0400)
Willemstad-Hato International

Weather History for TNCC - February, 2012

Change the Weather History Date:

Friday, February 24, 2012

  Actual Average Record
Temperature  
Mean Temperature 80 °F -  
Max Temperature 84 °F 85 °F 89 °F (2001)
Min Temperature 77 °F 75 °F 73 °F (2004)
Cooling Degree Days 16    
Growing Degree Days 30 (Base 50)    
Moisture  
Dew Point 71 °F    
Average Humidity 75    
Maximum Humidity 89    
Minimum Humidity 64    
Precipitation  
Precipitation 0.00 in 0.02 in - ()
Sea Level Pressure  
Sea Level Pressure 29.94 in    
Wind  
Wind Speed 14 mph ()    
Max Wind Speed 18 mph    
Max Gust Speed 25 mph    
Visibility 7.6 miles    
Events      
Averages and records for this station are not official NWS values.
T = Trace of Precipitation, MM = Missing Value Source: Averaged Metar Reports

Daily Weather History Graph

Daily Weather History Graph

Search for Another Location

Airport or City:

Trip Planner

Search our weather history database for the weather conditions in past years. The results will help you decide how hot, cold, wet, or windy it might be!

Date:

Astronomy

Feb. 24, 2012 Rise Set
Actual Time 6:54 AM AST 6:44 PM AST
Civil Twilight 6:32 AM AST 7:05 PM AST
Nautical Twilight 6:07 AM AST 7:30 PM AST
Astronomical Twilight 5:43 AM AST 7:55 PM AST
Moon 8:26 AM AST (2/24) 8:59 PM AST (2/24)
Length of Visible Light 12h 33m
Length of Day
11h 50m
Waxing Crescent, 7% of the Moon is Illuminated
Feb 24
Waxing Crescent
Feb 29
First Quarter
Mar 8
Full
Mar 14
Last Quarter
Mar 22
New

Hourly Weather History & Observations

Time (AST) Temp. Heat Index Dew Point Humidity Pressure Visibility Wind Dir Wind Speed Gust Speed Precip Events Conditions
12:00 AM 78.8 °F - 69.8 °F 74% 29.92 in 6.2 mi East 16.1 mph - N/A   Scattered Clouds
1:00 AM 78.8 °F - 69.8 °F 74% 29.92 in 6.2 mi East 17.3 mph - N/A   Scattered Clouds
2:00 AM 78 °F - 70 °F 71% 29.92 in 19 mi East 17.3 mph - -   Partly Cloudy
2:00 AM 78.8 °F - 69.8 °F 74% 29.92 in 6.2 mi East 18.4 mph - N/A   Scattered Clouds
3:00 AM 78.8 °F - 69.8 °F 74% 29.89 in 6.2 mi East 16.1 mph - N/A   Scattered Clouds
4:00 AM 77.0 °F - 69.8 °F 78% 29.89 in 6.2 mi East 16.1 mph - N/A   Scattered Clouds
5:00 AM 78 °F - 71 °F 72% 26.95 in 19 mi ESE 13.8 mph - -   Partly Cloudy
5:00 AM 77.0 °F - 69.8 °F 78% 29.89 in 6.2 mi East 13.8 mph - N/A   Scattered Clouds
6:00 AM 78.8 °F - 71.6 °F 78% 29.89 in 6.2 mi East 12.7 mph - N/A   Scattered Clouds
7:00 AM 78.8 °F - 71.6 °F 78% 29.92 in 6.2 mi East 15.0 mph - N/A   Scattered Clouds
8:00 AM 79 °F - 72 °F 73% 29.96 in 22 mi East 13.8 mph - -   Partly Cloudy
8:00 AM 78.8 °F - 71.6 °F 78% 29.95 in 6.2 mi East 13.8 mph - N/A   Scattered Clouds
9:00 AM 80.6 °F 84.6 °F 71.6 °F 74% 29.98 in 6.2 mi East 17.3 mph - N/A   Scattered Clouds
10:00 AM 82.4 °F 87.2 °F 71.6 °F 70% 29.98 in 6.2 mi East 18.4 mph - N/A   Scattered Clouds
11:00 AM 83 °F - 73 °F 64% 30.01 in 22 mi East 17.3 mph - -   Partly Cloudy
11:00 AM 84.2 °F 90.9 °F 73.4 °F 70% 30.01 in 6.2 mi East 17.3 mph - N/A   Scattered Clouds
12:00 PM 84.2 °F 90.9 °F 73.4 °F 70% 29.98 in 6.2 mi ENE 16.1 mph - N/A   Scattered Clouds
1:00 PM 82.4 °F 88.2 °F 73.4 °F 74% 29.98 in 6.2 mi East 18.4 mph - N/A   Scattered Clouds
2:00 PM 77.0 °F - 73.4 °F 89% 29.95 in - East 10.4 mph - N/A   Mostly Cloudy
3:00 PM 82.4 °F 87.2 °F 71.6 °F 70% 29.92 in 6.2 mi East 17.3 mph - N/A   Mostly Cloudy
4:00 PM 82.4 °F 87.2 °F 71.6 °F 70% 29.92 in 6.2 mi East 17.3 mph - N/A   Scattered Clouds
5:00 PM 77.0 °F - 71.6 °F 83% 29.89 in 6.2 mi ESE 12.7 mph 25.3 mph N/A   Scattered Clouds
7:00 PM 78.8 °F - 71.6 °F 78% 29.92 in 6.2 mi East 17.3 mph - N/A   Partly Cloudy
8:00 PM 78.8 °F - 71.6 °F 78% 29.92 in 6.2 mi East 17.3 mph - N/A   Partly Cloudy
9:00 PM 78.8 °F - 71.6 °F 78% 29.95 in 6.2 mi East 15.0 mph - N/A   Partly Cloudy
10:00 PM 78.8 °F - 71.6 °F 78% 29.95 in 6.2 mi East 16.1 mph - N/A   Partly Cloudy
11:00 PM 78 °F - 71 °F 73% 29.98 in 16 mi ESE 15.0 mph - -   Scattered Clouds
11:00 PM 78.8 °F - 71.6 °F 78% 29.98 in 6.2 mi ESE 15.0 mph - N/A   Partly Cloudy